Temperature
25 26 26 27 27 27 27 27 27 27 27 27 27 26 25 24 25 26 25 25 24 23 22 20 20 20 19 18 19 19 19 18 17 16 16 16 15 15 14 14 14 14 14 14
25 26 27 26 26 26 26 26 27 27 26 27 26 25 24 23 21 21 21 21 20 21 20 18 18 17 17 16 17 18 18 17 16 16 16 16 15 14 14 14 14 14 14 13
25 27 26 25 25 25 26 26 27 27 26 26 26 25 24 23 21 20 20 19 18 18 18 17 16 15 15 14 14 15 16 16 16 15 15 15 14 14 13 13 13 13 13 12
25 26 25 25 25 26 26 27 26 26 26 27 26 26 24 24 23 21 19 18 17 17 17 16 15 14 13 13 13 14 15 15 14 14 13 13 13 13 12 12 12 11 11 11
25 26 25 25 26 26 26 26 26 26 26 26 26 26 25 24 23 21 18 17 16 15 15 14 14 13 13 13 13 13 13 14 14 13 13 13 12 12 11 11 10 10 10 10
26 26 26 26 26 26 25 25 25 26 26 24 25 25 25 23 20 20 17 15 14 14 14 14 13 13 13 12 12 13 13 13 13 13 13 12 11 11 10 10 9 10 9 9
24 25 26 25 25 24 25 25 24 23 24 24 25 24 23 19 18 18 16 14 14 14 14 14 13 13 12 12 12 12 12 12 11 11 11 10 10 9 9 9 8 8 8 8
24 24 25 25 25 25 25 25 24 23 23 24 23 24 22 18 16 15 15 14 14 14 14 13 12 12 12 11 11 11 10 10 9 9 9 9 9 9 8 8 8 7 7 6
25 25 25 25 25 25 25 25 26 25 24 23 24 23 18 17 17 16 15 15 14 14 13 13 12 11 11 10 10 9 9 9 9 9 9 9 8 8 7 7 6 6 5 5
25 24 25 24 24 24 25 26 24 24 22 22 23 23 23 18 17 16 16 15 14 14 13 12 12 11 10 10 9 9 9 8 8 8 7 7 6 6 5 5 4 4 3 3
25 24 24 23 23 24 23 24 24 24 24 23 22 23 20 19 18 17 16 15 14 14 13 12 11 10 10 9 9 8 8 7 7 6 6 6 5 4 4 4 4 3 3 2
24 24 23 23 22 22 24 24 24 23 22 23 23 20 17 18 16 16 15 14 13 13 12 12 11 10 9 9 8 7 6 6 5 5 5 4 3 3 3 3 3 2 2 2
23 22 22 21 20 21 22 22 23 24 23 22 22 20 15 15 15 15 14 13 13 12 12 11 10 9 8 7 7 6 5 4 4 3 3 3 2 2 2 2 2 2 2 2
21 22 22 22 23 23 22 21 22 23 22 22 22 19 15 15 15 14 13 13 12 12 11 10 10 8 7 6 5 4 4 3 2 2 2 2 2 1 1 2 2 2 2 2
20 21 20 20 22 23 22 21 21 22 22 22 21 19 16 15 15 14 13 12 12 12 11 10 8 6 6 5 4 3 3 2 2 1 1 1 1 1 1 2 2 2 2 2
19 19 19 18 19 20 20 20 19 19 19 19 18 17 16 15 14 13 12 12 12 11 10 8 6 5 5 4 3 3 2 2 1 1 1 1 1 1 2 2 2 2 1 1
19 18 19 18 18 18 17 18 18 17 17 18 18 16 14 14 13 13 12 11 11 10 9 7 5 5 3 3 2 2 1 1 1 1 1 1 1 2 2 2 2 2 1 1
18 19 19 18 16 17 17 15 16 16 15 16 15 14 14 13 13 12 11 11 10 8 7 5 4 3 2 2 1 1 1 1 1 1 1 1 2 2 2 2 2 1 1 1
18 18 18 17 17 17 14 14 15 15 14 15 14 14 13 12 12 12 9 8 7 6 5 4 3 2 2 1 1 1 2 2 2 2 2 2 2 2 2 2 2 1 1 1
16 18 18 17 16 16 16 15 15 15 13 14 13 13 13 12 14 12 8 7 6 4 3 3 2 1 1 1 1 2 2 2 2 2 2 2 2 2 2 2 1 1 1 1
15 16 15 15 14 15 14 13 14 14 14 13 13 12 12 12 11 9 7 6 5 3 2 2 2 1 1 2 2 2 2 2 2 2 2 2 2 2 2 2 2 1 1 1
13 14 15 15 14 14 13 13 14 14 13 12 12 11 11 10 9 8 6 5 4 3 2 1 1 1 2 2 2 2 3 3 3 2 2 2 2 2 2 2 2 1 1 1
13 13 15 15 15 14 13 14 13 12 12 11 11 11 10 10 9 7 6 5 3 2 2 1 2 2 2 2 3 3 3 3 3 3 3 3 3 2 2 2 2 2 1 1
11 12 13 13 12 12 12 12 11 11 11 11 10 10 10 9 8 7 5 4 3 2 2 2 2 3 3 3 3 3 4 4 3 4 4 3 3 3 3 2 2 2 1 -0
12 13 13 12 12 11 11 11 11 11 10 10 9 9 9 8 7 6 5 3 2 2 2 2 3 3 3 4 4 4 4 4 4 4 4 4 4 4 3 3 2 1 -0 -1
12 13 13 12 12 12 11 11 10 10 10 9 9 8 7 7 6 5 4 2 2 2 3 3 3 4 4 4 4 4 4 4 4 4 4 4 4 4 4 3 3 2 1 -0
Wind_Speed
9 13 14 11 8 7 6 7 8 6 4 7 5 3 8 8 6 2 1 2 3 4 5 5 3 3 4 6 9 11 11 9 5 3 4 4 3 3 3 3 4 2 1 2
11 15 10 5 7 8 9 11 11 7 4 5 5 8 10 12 12 10 8 8 8 8 7 6 3 1 3 5 8 9 10 9 5 1 1 1 2 2 3 2 2 2 4 5
16 5 6 9 10 11 12 13 11 8 7 7 8 8 9 12 13 13 13 12 12 12 10 9 7 6 6 7 7 8 9 9 7 3 2 4 4 3 2 1 2 4 5 5
13 10 9 10 12 13 12 9 8 9 11 7 7 7 10 9 12 14 14 14 13 12 12 12 12 12 11 11 11 12 13 12 10 7 6 5 3 3 5 5 5 6 5 7
11 11 11 12 11 13 6 7 8 9 10 8 9 10 7 7 7 11 13 13 14 14 15 15 15 15 14 14 14 14 15 15 14 12 10 8 7 6 5 6 7 9 8 9
9 7 7 6 3 7 9 9 7 9 11 13 9 9 5 5 5 6 10 12 13 14 15 16 16 15 15 15 14 14 15 15 14 13 13 12 10 9 8 9 10 11 11 12
14 14 9 6 7 8 11 11 9 11 12 12 7 8 3 7 5 7 10 11 11 12 13 13 14 14 14 14 13 13 14 13 12 12 11 10 8 7 8 10 11 13 13 14
15 15 15 12 14 12 16 18 14 12 12 9 9 9 7 8 9 9 10 10 11 11 11 12 12 12 12 12 12 12 11 10 9 8 8 7 8 9 9 11 12 13 13 14
11 13 9 7 9 12 17 18 17 15 14 13 9 6 7 9 10 10 10 10 10 9 10 10 11 11 11 11 11 10 9 9 9 9 9 9 10 10 11 12 13 13 13 15
14 11 11 8 7 7 12 13 10 15 16 14 14 14 9 16 12 11 11 10 9 9 9 9 10 10 10 10 9 9 9 9 10 11 11 10 12 12 13 14 14 15 15 15
20 17 13 12 12 14 10 13 14 14 14 15 15 6 4 14 13 12 11 9 8 7 7 8 8 8 8 8 9 9 10 10 11 12 12 13 13 14 15 15 15 14 14 14
20 17 18 15 4 5 12 16 16 13 13 14 15 2 6 11 12 12 11 9 7 6 6 7 7 8 8 9 9 10 11 12 13 14 14 14 14 14 15 15 14 13 13 12
13 14 18 11 9 9 11 12 15 16 13 13 15 5 10 11 11 11 10 8 5 5 5 6 7 8 8 9 10 11 12 13 14 15 16 16 15 14 14 13 13 12 12 12
8 13 20 25 21 20 17 16 17 18 15 15 14 6 13 14 13 11 9 5 3 4 5 6 7 7 8 9 10 12 13 14 15 15 16 15 14 13 12 12 11 11 11 13
8 12 8 2 2 10 15 16 16 16 12 12 6 7 15 15 13 11 7 3 2 3 6 7 7 7 8 10 11 12 12 13 13 14 14 13 13 12 10 10 10 10 12 13
8 10 10 5 7 10 13 13 11 7 5 4 8 8 13 13 11 8 4 2 2 5 6 7 7 8 9 11 11 10 10 11 11 11 11 11 11 11 10 10 10 10 11 12
13 12 12 9 11 12 12 12 9 7 6 8 7 10 16 13 10 6 4 2 4 6 6 6 7 8 9 9 8 8 9 9 10 10 11 11 11 11 10 10 10 10 11 12
13 14 10 10 12 12 6 5 5 9 7 6 12 16 14 11 8 5 4 4 6 6 5 5 6 7 7 6 6 7 8 9 10 10 10 11 11 10 10 10 10 11 11 12
9 11 9 10 13 7 6 8 11 12 10 11 16 16 12 8 5 7 8 7 6 4 3 4 5 6 5 4 6 7 9 10 10 10 10 10 10 10 11 11 11 11 11 12
6 9 9 8 11 10 7 13 11 12 11 12 14 13 10 5 3 6 7 5 4 3 3 4 5 4 2 4 6 8 9 10 10 9 8 7 8 10 11 11 11 11 11 12
7 7 8 8 6 4 10 15 12 10 11 16 12 10 8 4 4 6 5 4 3 3 4 4 3 2 2 3 6 7 8 8 7 6 6 6 8 9 10 11 11 11 11 11
5 5 6 7 8 6 14 14 9 10 18 15 12 9 6 5 5 4 4 3 2 3 3 3 2 1 1 3 6 8 7 7 6 5 5 7 8 9 10 12 11 9 11 11
2 1 3 2 1 10 16 11 14 18 17 12 10 9 7 5 4 4 2 2 3 3 3 2 2 2 1 3 6 9 9 8 7 7 7 8 9 9 11 12 11 9 10 11
4 2 4 5 8 15 13 16 16 15 14 12 11 9 7 5 4 3 2 3 3 3 3 3 3 3 3 6 8 9 9 9 8 9 8 8 9 9 10 9 10 9 10 12
7 7 6 7 14 14 15 17 16 14 13 12 10 8 6 5 4 3 3 4 4 4 4 3 3 4 6 8 7 7 7 8 8 8 8 8 8 9 9 8 5 7 8 8
3 5 8 8 13 11 17 16 15 14 13 11 10 8 6 4 4 4 4 5 5 5 4 3 4 6 7 7 7 7 7 8 9 9 9 8 8 9 9 11 9 3 4 8
Wind_Direction
204 223 227 225 227 256 235 237 236 229 190 229 218 90 51 43 52 84 55 5 347 338 10 354 292 229 188 159 144 135 127 125 132 217 211 172 164 161 161 149 142 164 264 298
214 229 232 211 205 216 218 228 234 213 183 220 152 111 83 69 67 59 52 40 26 16 24 27 23 125 157 135 128 126 121 119 125 208 272 106 128 160 136 130 101 7 354 342
227 202 159 191 199 215 223 235 237 205 173 191 183 144 110 91 76 66 57 47 42 37 39 49 59 74 91 98 104 104 100 99 95 119 128 123 138 169 167 36 13 6 352 350
230 220 208 217 217 220 227 217 225 207 214 207 232 231 126 113 81 61 53 49 47 50 56 62 70 74 78 80 81 82 84 82 77 74 68 62 40 33 24 356 359 341 339 341
212 203 206 217 220 218 223 165 197 214 231 246 223 258 151 140 92 62 56 54 57 61 66 69 72 75 78 80 80 78 75 69 63 59 55 46 39 27 14 354 353 333 329 327
213 196 220 218 180 208 163 169 187 221 236 242 232 253 201 94 63 79 74 67 68 73 73 73 74 73 72 71 71 70 67 63 60 57 53 47 40 23 4 347 337 329 322 319
216 214 210 205 191 177 198 202 209 221 227 238 191 236 98 85 82 96 98 90 89 88 80 73 69 68 66 64 64 66 66 64 58 54 47 36 19 354 345 339 332 323 318 316
212 212 206 212 226 214 212 222 230 238 245 230 180 230 114 108 108 106 109 108 102 90 77 70 66 65 65 64 61 60 61 57 48 40 27 15 360 347 342 338 325 317 313 314
223 218 175 200 228 241 220 227 243 256 254 262 227 166 129 137 133 131 126 119 105 88 76 69 65 61 59 57 52 47 43 36 23 12 0 352 348 339 329 319 309 313 315 310
231 226 190 173 193 225 248 232 225 240 243 244 239 217 208 171 163 151 141 126 111 94 76 62 55 50 46 43 40 31 22 10 359 349 343 335 330 324 318 312 314 312 313 314
229 231 213 200 219 216 200 211 226 238 246 245 249 225 54 160 161 156 142 125 109 87 66 49 40 36 32 24 15 7 1 353 346 339 333 327 323 319 315 312 314 317 316 316
218 227 229 214 203 269 232 224 220 231 233 244 263 189 99 138 151 153 141 126 101 68 46 39 29 19 14 10 4 358 350 344 338 332 326 321 319 318 318 320 322 321 320 319
198 216 221 208 210 208 213 214 225 236 247 241 252 212 142 151 152 151 142 128 101 60 35 26 22 14 10 3 357 350 343 340 333 330 326 325 324 326 327 328 328 324 318 314
212 224 226 233 231 210 207 207 212 220 233 242 251 176 168 169 159 153 145 125 84 58 36 21 15 18 7 357 351 346 343 343 340 337 333 332 333 333 330 325 318 312 313 317
214 219 214 240 221 200 199 197 201 217 240 250 235 172 166 165 157 149 142 120 68 29 23 24 22 12 357 354 352 351 351 352 349 344 339 336 331 324 318 313 313 320 327 333
205 199 169 146 147 161 172 176 176 175 183 161 140 125 139 142 143 147 133 81 21 5 14 19 16 2 357 356 354 353 354 353 351 347 340 332 326 322 320 322 331 340 348 350
186 183 191 178 160 156 177 171 168 165 172 180 179 141 145 151 153 138 106 46 12 8 14 17 5 359 356 354 350 348 347 347 348 347 341 336 334 332 335 341 352 357 353 349
190 190 196 170 171 206 129 127 163 145 131 116 115 134 147 142 128 108 63 25 11 19 20 9 356 356 354 353 352 344 343 346 348 348 347 347 352 357 2 6 4 355 351 351
189 174 180 191 210 179 148 168 163 148 132 132 132 137 137 131 155 121 78 55 49 51 33 10 1 350 350 355 351 346 348 352 353 355 356 2 8 10 9 8 4 1 355 358
167 175 172 191 214 216 160 158 161 146 145 147 142 142 143 162 221 102 85 78 79 60 32 13 353 347 357 2 354 348 355 6 12 13 13 12 9 4 2 0 355 355 356 359
163 165 167 170 188 142 131 149 165 182 158 152 149 147 154 150 58 79 88 93 74 48 34 8 350 354 4 355 344 340 358 11 10 11 11 6 357 354 352 348 347 349 352 355
187 180 186 193 206 180 152 160 169 110 127 143 148 147 144 121 106 104 99 87 51 33 35 13 6 18 348 332 326 329 345 347 343 340 342 345 345 344 345 341 342 348 352 353
192 247 221 209 141 121 152 144 122 128 132 139 144 141 140 134 122 121 110 72 58 44 47 38 39 56 355 314 314 317 323 324 321 322 331 336 337 338 343 344 348 357 4 0
164 155 136 122 128 134 132 129 131 130 130 132 134 136 137 122 121 127 101 81 80 84 79 70 68 52 357 327 318 313 316 318 313 319 327 328 329 339 350 356 2 5 12 6
147 159 150 128 136 131 139 137 133 129 129 128 127 124 117 119 118 101 93 97 107 109 97 79 42 0 338 330 330 338 346 344 340 336 333 333 341 352 346 0 9 13 40 34
149 170 180 164 163 156 150 147 144 142 140 135 129 121 113 107 105 99 102 116 123 115 104 64 15 350 346 348 359 7 5 4 2 3 2 357 359 1 356 357 5 105 94 128
Height
1512 1510 1506 1501 1503 1503 1505 1507 1508 1505 1506 1507 1508 1512 1515 1515 1513 1513 1516 1519 1522 1525 1527 1528 1530 1531 1531 1532 1533 1534 1537 1540 1542 1545 1545 1543 1542 1542 1542 1542 1541 1541 1541 1540
1509 1505 1500 1503 1506 1507 1507 1508 1506 1504 1507 1506 1508 1514 1517 1520 1521 1522 1523 1524 1525 1526 1527 1527 1528 1529 1529 1529 1529 1531 1534 1537 1540 1543 1543 1541 1540 1540 1540 1540 1539 1538 1538 1536
1502 1497 1502 1504 1506 1507 1505 1504 1500 1502 1505 1504 1506 1514 1514 1519 1522 1524 1525 1526 1526 1527 1528 1529 1529 1529 1529 1528 1528 1530 1532 1535 1537 1540 1541 1539 1539 1539 1539 1539 1537 1535 1534 1532
1498 1496 1501 1502 1500 1501 1501 1497 1499 1501 1504 1501 1505 1506 1514 1514 1519 1525 1527 1528 1529 1530 1531 1531 1531 1531 1531 1530 1530 1530 1532 1534 1536 1538 1539 1539 1540 1539 1537 1537 1536 1534 1531 1528
1495 1494 1496 1497 1494 1495 1493 1497 1498 1499 1500 1503 1502 1506 1506 1510 1518 1526 1531 1533 1533 1533 1533 1533 1533 1533 1533 1533 1533 1533 1533 1534 1535 1536 1537 1538 1538 1537 1537 1535 1533 1531 1529 1525
1488 1492 1492 1491 1494 1495 1498 1500 1501 1500 1499 1511 1502 1509 1503 1513 1524 1529 1534 1537 1537 1537 1537 1537 1537 1537 1537 1536 1535 1535 1535 1536 1537 1537 1536 1536 1535 1534 1533 1532 1529 1526 1524 1520
1492 1489 1489 1492 1494 1497 1496 1501 1512 1513 1510 1507 1500 1507 1511 1524 1529 1531 1536 1539 1540 1540 1540 1540 1540 1540 1539 1539 1538 1538 1538 1538 1537 1536 1535 1534 1533 1532 1530 1527 1524 1520 1517 1514
1488 1489 1484 1486 1488 1489 1493 1493 1505 1514 1509 1499 1507 1506 1515 1528 1533 1536 1539 1541 1541 1542 1542 1543 1543 1542 1542 1541 1541 1540 1539 1538 1537 1536 1534 1533 1531 1529 1526 1522 1518 1515 1511 1507
1480 1482 1480 1484 1485 1485 1487 1488 1483 1493 1496 1502 1496 1504 1523 1529 1532 1536 1539 1541 1543 1544 1545 1545 1545 1544 1543 1543 1542 1541 1540 1539 1537 1535 1533 1530 1527 1523 1520 1516 1512 1509 1504 1499
1473 1480 1479 1484 1486 1487 1482 1480 1490 1496 1505 1509 1499 1500 1500 1522 1528 1533 1537 1540 1542 1544 1545 1546 1546 1545 1545 1544 1543 1541 1540 1538 1536 1533 1530 1526 1522 1518 1514 1511 1507 1501 1496 1492
1470 1478 1479 1482 1484 1480 1486 1487 1486 1486 1486 1497 1503 1498 1508 1514 1524 1531 1536 1539 1542 1543 1545 1546 1546 1546 1546 1545 1544 1542 1539 1536 1533 1530 1525 1521 1517 1513 1509 1505 1501 1496 1491 1486
1466 1471 1474 1475 1481 1484 1479 1477 1482 1491 1493 1491 1494 1508 1516 1519 1527 1532 1536 1540 1542 1544 1545 1546 1547 1547 1546 1545 1543 1540 1537 1534 1530 1525 1521 1516 1512 1508 1504 1500 1495 1491 1487 1482
1466 1470 1478 1486 1490 1486 1482 1481 1479 1479 1482 1488 1495 1505 1521 1525 1529 1533 1537 1540 1542 1544 1545 1546 1547 1547 1546 1544 1541 1538 1534 1530 1525 1521 1516 1511 1507 1503 1499 1495 1491 1487 1483 1479
1468 1463 1465 1470 1465 1465 1476 1481 1479 1479 1483 1486 1488 1502 1519 1523 1528 1534 1538 1540 1542 1544 1545 1546 1546 1545 1544 1542 1539 1535 1531 1526 1521 1516 1512 1507 1503 1499 1495 1492 1488 1485 1481 1478
1469 1464 1465 1466 1460 1459 1468 1477 1479 1478 1478 1483 1485 1497 1512 1519 1526 1533 1537 1540 1542 1543 1544 1545 1545 1544 1542 1539 1536 1532 1528 1523 1518 1514 1509 1505 1502 1498 1494 1491 1488 1485 1481 1477
1467 1467 1471 1476 1473 1471 1476 1479 1483 1487 1490 1493 1496 1506 1514 1522 1528 1533 1537 1539 1541 1542 1544 1544 1543 1541 1539 1536 1533 1530 1526 1522 1518 1513 1510 1506 1502 1498 1495 1492 1488 1484 1481 1476
1463 1467 1469 1476 1477 1480 1487 1485 1487 1493 1495 1497 1498 1507 1518 1524 1528 1532 1536 1539 1540 1542 1543 1542 1541 1539 1537 1534 1531 1528 1525 1522 1518 1514 1510 1506 1502 1499 1496 1492 1489 1485 1481 1476
1461 1461 1463 1474 1484 1487 1485 1493 1492 1496 1502 1502 1505 1513 1519 1524 1530 1534 1536 1538 1540 1541 1541 1540 1539 1538 1535 1532 1530 1527 1525 1522 1518 1514 1511 1507 1504 1501 1497 1494 1490 1486 1481 1476
1460 1461 1464 1471 1474 1478 1495 1495 1495 1498 1506 1507 1511 1516 1522 1527 1529 1532 1536 1538 1539 1539 1538 1538 1536 1535 1532 1530 1529 1527 1525 1522 1518 1514 1511 1508 1505 1503 1499 1495 1491 1486 1482 1477
1464 1459 1462 1469 1474 1481 1483 1492 1495 1498 1508 1511 1514 1518 1523 1527 1523 1530 1536 1537 1537 1537 1536 1534 1533 1532 1531 1530 1528 1527 1525 1522 1518 1514 1512 1509 1507 1504 1500 1496 1492 1487 1482 1477
1466 1464 1466 1474 1480 1480 1489 1494 1497 1500 1502 1512 1516 1520 1524 1526 1529 1534 1535 1535 1536 1535 1533 1532 1531 1530 1530 1529 1528 1527 1525 1522 1519 1516 1513 1511 1508 1505 1501 1497 1492 1487 1483 1478
1471 1470 1471 1473 1478 1486 1491 1495 1495 1497 1504 1512 1517 1521 1525 1528 1531 1533 1534 1535 1534 1534 1532 1530 1529 1529 1529 1529 1528 1527 1525 1522 1519 1517 1514 1511 1508 1505 1501 1496 1492 1487 1483 1478
1474 1475 1470 1473 1479 1483 1490 1493 1498 1503 1508 1514 1518 1522 1526 1528 1531 1533 1534 1534 1533 1532 1531 1530 1530 1530 1530 1530 1528 1526 1524 1522 1519 1517 1515 1511 1508 1505 1501 1496 1492 1487 1483 1479
1480 1480 1479 1482 1487 1490 1493 1498 1503 1507 1511 1516 1520 1523 1526 1528 1531 1532 1533 1533 1532 1531 1531 1531 1531 1532 1532 1530 1528 1526 1523 1521 1518 1517 1514 1511 1508 1505 1501 1496 1492 1488 1483 1479
1475 1478 1479 1484 1491 1495 1498 1501 1506 1510 1514 1518 1521 1524 1526 1529 1530 1531 1532 1531 1531 1532 1532 1533 1533 1533 1532 1531 1528 1526 1524 1521 1519 1516 1514 1511 1508 1504 1500 1496 1491 1488 1483 1479
1478 1478 1479 1483 1490 1491 1499 1504 1508 1512 1515 1519 1522 1525 1527 1528 1530 1530 1530 1531 1531 1532 1533 1534 1535 1534 1533 1531 1530 1527 1524 1522 1520 1517 1514 1511 1508 1504 1501 1497 1493 1487 1483 1479